This is the latest recevied weather packets stored in our database for station/object K1JO. If no packets are shown the sender has not sent any weather packets the latest 10 day(s).
| Time | Temp. | Humidity | Pressure | Rain* | Wind** | Luminosity | Snow |
|---|---|---|---|---|---|---|---|
| 1777174896 | 0.56° C | 97% | 1013.7 hPa | 0 mm | - | 0 W/m² | - |
| 1777174592 | 1.11° C | 97% | 1013.6 hPa | 0 mm | - | 0 W/m² | - |
| 1777174292 | 1.11° C | 96% | 1013.7 hPa | 0 mm | - | 0 W/m² | - |
| 1777173988 | 1.11° C | 96% | 1013.8 hPa | 0 mm | - | 0 W/m² | - |
| 1777173685 | 1.11° C | 96% | 1013.9 hPa | 0 mm | - | 0 W/m² | - |
| 1777173378 | 1.11° C | 97% | 1014 hPa | 0 mm | - | 0 W/m² | - |
| 1777173073 | 1.11° C | 97% | 1013.8 hPa | 0 mm | - | 0 W/m² | - |
| 1777172772 | 1.11° C | 97% | 1013.8 hPa | 0 mm | - | 0 W/m² | - |
| 1777172469 | 1.11° C | 97% | 1013.6 hPa | 0 mm | - | 0 W/m² | - |
| 1777172163 | 1.11° C | 96% | 1013.7 hPa | 0 mm | - | 0 W/m² | - |
| 1777171860 | 1.11° C | 96% | 1013.5 hPa | 0 mm | - | 0 W/m² | - |
| 1777171556 | 1.11° C | 95% | 1013.4 hPa | 0 mm | - | 0 W/m² | - |
| 1777171252 | 1.67° C | 95% | 1013.6 hPa | 0 mm | - | 0 W/m² | - |
| 1777170950 | 1.67° C | 94% | 1013.2 hPa | 0 mm | - | 0 W/m² | - |
| 1777170647 | 1.67° C | 94% | 1013.4 hPa | 0 mm | - | 0 W/m² | - |
| 1777170342 | 1.67° C | 94% | 1013.5 hPa | 0 mm | - | 0 W/m² | - |
| 1777170040 | 2.22° C | 95% | 1013.7 hPa | 0 mm | - | 0 W/m² | - |
| 1777169737 | 1.67° C | 95% | 1013.4 hPa | 0 mm | - | 0 W/m² | - |
| 1777169433 | 1.67° C | 94% | 1013.7 hPa | 0 mm | - | 0 W/m² | - |
| 1777169128 | 1.67° C | 93% | 1013.5 hPa | 0 mm | - | 0 W/m² | - |
| 1777168823 | 2.22° C | 93% | 1013.4 hPa | 0 mm | - | 0 W/m² | - |
| 1777168520 | 2.22° C | 93% | 1013.2 hPa | 0 mm | - | 0 W/m² | - |
| 1777168217 | 2.22° C | 92% | 1013.4 hPa | 0 mm | - | 0 W/m² | - |
| 1777167916 | 2.22° C | 92% | 1013.6 hPa | 0 mm | - | 0 W/m² | - |
| 1777167615 | 2.78° C | 91% | 1013.4 hPa | 0 mm | - | 0 W/m² | - |
* Rain latest hour (hover to see other rain measurements)
** Current wind speed in m/s (hover to see current wind gust speed)